Find OneWeb SL0189

NORAD ID: 48217 Int'l Des: 2021-031 Owner: ONEWEBN Country: UK Constellation: oneweb operational
別名: ONEWEB-0189 spacetrack, celestrak
LEOCIRCULARPOLARONEWEB_TYPE

現在のビュー

3D地球を読み込み中...

About OneWeb SL0189

OneWeb SL0189 (NORAD 48217) is a oneweb constellation satellite launched Apr 25, 2021 by ONEWEBN of UK. It operates in LEO, CIRCULAR, POLAR, ONEWEB_TYPE orbit with a mass of 148.00 kg.

次回通過

Passes for default location (London). Set your location on the main map for personalized predictions.

高度履歴

Loading altitude history...

軌道要素

1 48217U 21031H 26238.03902315 .00000919 00000-0 24408-2 0 9992
2 48217 87.8913 275.7752 0001834 82.3115 277.8223 13.14559167257402
Epoch: Aug 26, 2026 • Age: 10 hours

現在のステータス

高度 1219.0 km
遠地点 / 近地点 N/A
速度 7.24 km/s
衛星直下点 -33.32°S, 44.91°W
打ち上げ日 Apr 25, 2021
運用期間 5.3 years
タイプ internet

技術仕様

分類 Payload
質量 148.00 kg
乾燥質量 140.00 kg
総質量 148.00 kg
長さ 1.30 m
直径 1.00 m
スパン 5.00 m
形状 Trapezoid+2 pan
製造者 ONEWUS
バスタイプ ARROW
フェーズステータス In Orbit
所有者/国 ONEWEBN/UK

Most Searched